Theta_e
299 297 298 297 298 298 297 298 297 296 297 296 297 297 294 292 289 288 288 288 288 289 294 297 298 299 300 302 302 302 302 302 302 302 301 303 303 304 314 319 324 328 328 328
297 298 298 298 298 298 297 296 296 296 296 296 296 294 293 292 290 288 287 287 287 287 293 296 296 299 299 301 302 302 302 302 302 302 303 304 304 305 318 325 326 328 327 327
298 299 299 298 298 297 296 296 295 294 296 297 296 294 292 291 290 287 287 286 286 286 288 292 295 298 300 299 301 301 302 302 302 302 303 304 306 311 322 326 328 327 329 328
298 299 298 298 298 296 288 295 294 294 292 295 295 293 293 290 290 287 285 285 285 285 288 290 293 297 300 300 299 299 301 302 302 303 303 303 309 311 322 326 328 328 327 326
298 298 298 293 298 295 292 293 293 295 292 291 298 293 293 289 288 285 285 284 284 284 286 288 291 294 298 301 302 301 301 302 303 302 302 308 313 311 319 324 327 327 327 326
297 298 297 297 296 295 293 291 296 298 291 286 294 292 291 287 286 284 283 282 283 283 284 286 290 295 298 301 301 301 302 305 303 305 308 317 317 315 319 324 325 327 326 326
295 297 297 296 293 294 292 290 290 292 289 290 295 293 287 286 284 282 282 280 281 282 283 285 289 293 295 299 301 302 302 305 307 310 313 317 318 319 322 322 323 326 325 324
289 295 295 294 289 288 292 290 291 293 292 292 296 292 289 285 284 281 279 281 281 281 282 284 286 289 291 294 298 300 302 304 306 308 311 314 316 319 320 320 320 321 323 323
291 292 295 293 292 290 293 293 292 290 290 290 293 293 288 288 283 279 278 280 280 281 281 283 285 286 288 291 294 296 298 301 302 304 306 311 314 316 317 316 319 318 316 314
291 294 296 294 292 292 292 291 294 292 293 294 294 291 285 282 280 279 278 279 279 280 281 282 283 285 286 288 290 292 294 298 296 299 299 302 307 310 308 311 314 311 309 309
292 290 295 293 286 287 291 291 291 291 293 295 295 295 279 279 278 278 278 279 279 280 280 281 282 284 285 286 287 288 290 292 293 295 292 295 300 305 302 306 304 305 304 305
294 289 293 290 285 289 291 288 289 290 293 294 293 293 284 280 279 279 278 278 279 280 280 281 282 283 283 284 284 286 287 288 289 290 288 290 296 299 302 301 300 300 301 301
291 294 290 293 292 293 289 291 289 290 290 288 291 289 284 281 279 278 278 278 278 279 280 280 281 282 282 282 282 283 284 284 286 286 283 284 291 298 300 299 299 299 297 297
295 291 288 293 291 283 289 289 289 289 283 284 287 285 284 281 278 277 277 278 278 278 279 280 280 280 281 281 282 282 283 285 284 282 281 281 288 295 293 292 289 289 287 286
292 290 284 287 280 285 286 286 285 283 282 287 287 285 281 280 278 277 277 277 277 278 279 279 280 280 281 281 282 282 284 284 282 281 282 281 283 285 286 286 285 284 285 284
291 291 291 290 282 284 288 289 284 284 279 279 279 283 279 279 277 277 277 277 277 277 279 279 280 281 281 282 283 283 284 284 284 285 281 281 283 284 284 284 283 283 283 283
289 288 285 288 288 291 291 286 281 279 275 281 284 285 278 277 276 277 277 277 278 278 279 281 281 282 283 283 284 283 280 280 281 281 282 283 284 284 283 284 284 283 283 283
290 286 289 289 284 293 289 279 280 282 279 273 276 277 279 280 278 278 278 278 278 278 278 280 282 283 282 281 280 280 280 281 282 283 283 282 282 283 283 283 283 282 282 283
290 288 289 289 294 290 292 285 286 288 290 278 279 276 284 282 280 281 281 279 278 278 279 281 281 281 281 280 279 280 280 280 281 281 281 282 283 283 282 282 282 282 283 282
293 289 290 297 293 289 290 283 289 287 294 284 285 283 284 283 281 278 280 278 278 279 280 281 280 279 279 279 279 279 280 280 281 281 282 282 283 283 283 283 282 281 282 282
292 292 287 294 291 291 286 289 292 295 299 291 288 288 285 284 287 285 280 279 279 280 280 280 279 280 280 279 280 281 281 282 281 282 282 282 282 282 282 282 282 282 282 281
292 292 291 292 295 294 290 291 293 294 290 295 292 289 288 288 286 283 280 280 280 280 280 279 280 280 280 280 281 282 283 282 282 282 283 283 283 282 282 282 282 281 281 281
295 295 296 295 296 291 293 294 294 297 298 294 292 291 290 288 285 283 281 281 280 280 280 280 280 280 280 280 281 283 283 282 282 282 282 281 281 281 281 281 281 281 280 280
294 293 294 293 290 291 296 297 294 295 298 296 294 292 290 289 287 284 282 281 281 281 281 281 281 281 282 281 281 282 282 281 281 281 281 280 280 280 280 280 280 279 279 279
295 293 294 292 292 293 295 297 298 295 296 295 294 293 292 289 287 285 283 283 282 282 282 282 282 282 282 282 281 282 282 281 280 280 281 281 280 280 280 279 279 279 279 279
293 294 295 297 297 297 296 299 298 296 298 296 295 293 291 290 288 286 285 285 284 284 283 283 283 282 283 283 282 282 282 282 280 281 281 280 279 279 279 279 279 278 278 278
Wind_Speed
2 5 2 5 3 6 10 13 14 14 7 15 4 6 9 12 20 22 24 27 29 32 28 23 20 17 12 6 8 9 10 11 17 20 17 19 18 19 18 15 16 19 25 24
5 0 2 4 5 9 12 13 7 10 12 7 8 10 9 10 16 18 21 24 26 31 30 29 29 19 9 9 6 7 8 14 14 16 16 19 18 17 16 13 18 24 23 31
3 2 6 6 11 16 14 4 10 11 7 3 8 2 5 10 11 21 21 21 25 28 32 33 31 26 18 10 8 8 10 15 14 14 16 19 19 15 15 14 17 16 30 32
3 4 5 8 7 9 4 3 17 15 2 4 2 3 5 12 9 16 25 28 30 34 34 33 28 25 24 9 8 11 10 12 13 15 18 23 21 16 15 18 23 21 16 18
2 5 6 3 11 5 8 19 12 5 3 2 4 3 2 9 12 20 23 30 32 32 30 30 28 23 20 14 8 7 9 12 14 17 20 19 19 16 17 13 27 26 23 28
3 8 2 2 13 1 12 5 2 2 2 4 7 2 3 5 9 15 22 29 32 35 35 29 24 22 21 16 13 11 9 10 12 11 14 16 16 17 17 23 24 25 27 27
7 3 2 3 6 1 9 6 4 5 5 4 4 4 4 4 7 8 17 27 30 33 32 30 28 26 24 21 16 11 9 6 5 6 9 13 15 19 22 26 27 30 30 30
3 7 3 5 4 4 5 3 3 3 3 5 5 4 4 4 9 17 21 22 27 30 29 27 24 22 21 18 14 11 7 5 3 4 8 12 18 20 26 29 26 25 26 27
4 6 2 4 1 2 5 2 1 2 3 2 2 1 3 12 18 21 23 25 27 30 31 28 22 20 18 16 13 10 7 4 0 5 11 17 20 23 24 28 28 27 27 26
2 6 3 3 1 5 4 3 1 1 4 3 3 4 4 13 18 16 18 24 29 29 26 23 21 19 16 13 11 9 6 3 6 10 15 21 25 27 31 31 30 29 30 30
4 2 3 3 2 4 3 3 3 3 2 2 4 4 4 5 8 12 16 22 25 27 23 20 18 15 13 12 11 12 13 11 11 17 23 27 33 33 37 38 39 38 39 38
4 3 6 4 5 5 4 2 1 1 4 2 1 4 1 2 6 12 17 20 20 19 17 17 15 14 16 16 17 17 19 22 24 27 32 36 42 45 46 47 47 45 45 42
3 1 5 3 3 2 4 1 2 3 1 3 2 4 4 9 12 13 14 19 18 17 17 18 17 19 21 24 25 26 27 30 35 36 36 40 51 54 52 49 46 44 42 40
6 2 5 5 5 3 5 3 4 2 1 2 4 7 6 15 10 16 17 14 13 15 16 17 19 22 24 28 31 33 34 37 37 36 37 38 54 55 53 49 46 44 42 41
3 2 1 7 6 1 3 5 4 4 4 2 5 3 4 6 10 12 12 9 11 14 17 19 22 23 25 29 32 35 39 38 37 41 45 47 53 52 50 48 45 44 41 40
2 2 1 5 7 5 4 6 2 2 4 4 4 6 3 4 5 8 9 9 11 14 16 20 23 26 31 34 36 38 40 42 44 46 45 46 49 46 45 44 42 40 39 37
3 2 2 5 7 7 6 6 2 3 3 5 2 4 1 3 4 5 8 12 16 18 20 22 24 28 31 33 34 36 34 34 38 41 43 42 42 41 41 39 36 35 35 33
3 4 2 4 5 5 6 3 3 5 5 4 3 6 3 1 3 5 7 11 14 18 20 22 24 25 26 26 29 30 33 36 37 38 39 38 39 38 36 34 33 32 30 29
2 3 2 1 1 6 9 5 5 5 5 7 5 2 2 7 2 3 7 10 14 16 18 20 21 23 23 23 27 30 33 35 35 36 35 34 33 32 31 30 28 26 24 24
3 4 3 1 2 3 7 5 8 4 3 14 14 10 10 8 2 4 9 12 14 15 16 18 18 20 21 26 29 30 32 31 31 31 30 29 27 26 25 24 22 21 21 19
2 1 4 3 4 7 5 10 11 5 6 20 27 26 23 7 7 16 16 17 17 15 15 16 17 19 22 22 23 25 26 27 27 25 24 23 22 21 20 19 17 16 14 13
6 6 4 2 1 5 12 9 7 4 9 29 28 25 24 11 19 21 20 18 18 17 16 16 17 19 19 18 17 21 21 22 20 19 18 17 16 16 15 13 13 11 10 8
2 6 4 8 5 2 29 4 12 12 26 32 30 27 21 21 24 23 22 20 18 16 16 16 14 16 17 15 13 14 18 17 15 13 13 13 13 13 11 9 8 7 7 7
5 5 3 3 2 8 24 23 10 12 26 28 26 27 26 27 25 24 22 22 20 18 16 16 15 15 16 15 13 12 14 13 11 9 10 10 9 9 8 7 7 6 6 7
4 8 4 6 6 3 18 34 22 16 22 28 26 25 25 27 27 25 25 22 20 18 16 14 14 14 14 14 13 11 11 11 9 7 6 6 5 4 3 3 3 4 7 10
11 7 6 6 7 3 3 27 33 25 28 29 30 29 27 27 28 27 25 23 22 20 18 17 16 15 14 14 13 11 10 10 8 5 5 4 3 3 2 4 7 9 10 12
Wind_Direction
324 57 327 311 299 285 297 301 301 301 345 329 284 56 49 25 20 13 4 357 353 351 352 348 349 332 280 245 215 234 274 270 278 275 261 275 278 251 239 216 220 219 225 220
9 245 273 293 315 325 319 305 293 294 320 317 83 48 19 23 22 12 2 355 349 349 2 1 359 355 312 245 216 227 254 260 259 248 252 279 279 253 247 226 208 212 217 221
174 254 350 334 331 340 330 265 312 302 317 46 131 133 49 2 3 4 2 354 358 356 350 1 3 13 355 245 254 276 264 263 257 254 254 269 266 234 227 220 212 212 214 221
248 325 354 328 316 356 311 297 311 302 315 157 155 267 7 349 351 359 355 357 353 351 358 2 6 19 27 357 286 305 284 276 266 269 270 267 257 230 228 205 195 183 195 208
287 334 324 339 321 347 252 316 294 282 272 9 146 109 343 357 345 348 350 348 347 348 351 355 6 15 21 35 26 315 280 289 293 262 263 262 241 221 241 210 185 185 186 193
257 299 69 290 301 30 326 343 359 274 79 24 299 122 322 2 334 336 339 342 345 348 355 358 9 21 23 21 12 351 311 312 292 284 254 231 216 224 230 203 182 178 178 180
339 275 28 349 329 336 359 23 354 354 6 228 283 2 262 329 344 344 335 336 344 350 356 1 14 18 20 21 14 356 340 339 309 270 239 199 204 218 197 177 172 171 184 182
37 330 38 337 126 236 352 86 135 264 319 288 354 343 275 186 13 358 351 346 348 354 2 4 12 19 22 22 16 358 339 323 276 199 187 202 189 185 177 169 163 163 178 185
16 279 113 61 98 80 332 6 312 220 197 339 252 169 127 333 346 354 352 353 349 351 1 6 14 22 24 23 23 22 10 347 86 171 156 164 171 168 158 148 156 156 150 143
209 289 202 131 78 78 80 328 189 0 334 308 308 303 252 336 336 345 344 346 346 352 8 16 22 27 35 38 35 34 43 65 123 142 140 142 144 151 142 141 145 139 134 132
128 129 286 93 357 214 11 12 355 283 192 308 317 292 204 290 318 331 330 341 344 351 8 18 31 40 52 61 68 79 90 103 120 125 121 128 132 134 128 124 123 123 123 122
143 212 277 197 245 170 123 174 158 349 335 300 242 289 296 247 342 344 337 342 349 355 20 33 48 59 68 79 84 93 102 106 110 118 113 116 122 121 116 114 114 115 113 114
169 189 325 38 348 270 96 88 64 255 282 277 300 292 231 7 352 353 348 345 356 1 29 49 62 69 77 84 88 94 105 108 111 115 104 106 114 114 112 113 113 111 110 109
135 148 175 210 196 238 333 337 8 109 65 289 229 290 312 328 342 342 347 359 12 26 43 63 72 77 84 87 96 100 104 107 110 109 104 104 111 113 113 113 111 110 110 110
99 172 238 273 128 261 245 277 349 112 222 201 290 270 268 302 317 327 335 360 19 37 58 66 75 84 90 94 97 100 102 108 111 110 106 104 108 109 110 111 112 112 111 109
38 285 17 293 105 132 280 284 180 213 181 271 284 286 185 287 341 342 1 35 38 48 70 78 86 90 91 95 99 105 108 111 110 109 113 113 110 110 110 112 112 110 107 107
104 88 37 269 310 131 348 239 200 270 207 163 24 239 207 310 320 358 23 51 61 68 74 81 87 95 99 101 106 111 115 117 115 115 112 109 109 110 109 107 110 109 107 106
128 106 155 271 343 22 236 269 168 168 239 209 279 265 232 230 47 47 63 71 70 70 75 83 92 99 102 108 111 115 116 114 112 110 109 110 107 104 104 105 103 102 101 99
143 119 323 30 248 285 135 245 172 153 277 191 198 229 200 188 82 67 114 94 83 77 80 93 105 113 118 119 119 119 118 116 113 113 110 105 103 103 102 99 97 96 95 91
141 104 118 320 92 187 235 223 194 136 332 181 186 182 178 170 56 247 157 129 112 105 108 114 115 119 124 126 125 123 119 116 109 105 102 101 100 100 98 95 96 93 85 84
194 234 157 221 259 286 228 156 156 81 233 173 188 180 174 185 194 156 153 140 126 124 125 123 121 122 121 124 124 119 114 105 101 99 97 96 94 91 90 90 88 82 82 80
172 151 195 159 275 310 155 128 167 218 154 173 185 192 190 179 163 160 156 149 143 142 135 131 132 127 124 123 123 114 108 102 103 101 99 98 98 94 89 86 86 84 78 71
275 195 181 182 219 248 185 205 163 171 168 178 182 184 187 178 171 167 161 159 155 151 144 139 140 132 128 127 127 121 110 108 109 112 112 107 96 90 91 93 92 85 77 61
236 178 241 48 281 221 207 211 205 187 189 182 185 182 183 180 176 172 171 169 166 161 159 153 151 148 144 143 144 138 122 122 120 117 113 108 104 100 92 74 64 53 49 38
201 140 199 265 260 218 230 218 215 200 183 189 190 193 187 185 182 181 178 177 174 171 168 165 164 162 160 159 157 151 144 139 130 125 112 102 100 95 85 69 45 26 19 17
190 185 177 218 207 197 219 215 197 201 193 188 190 189 192 192 188 185 185 182 181 180 179 178 176 176 178 176 173 175 170 158 147 156 158 160 159 156 89 35 22 17 7 359